TimeCST,TemperatureF,Dew PointF,Humidity,Sea Level PressureIn,VisibilityMPH,Wind Direction,Wind SpeedMPH,Gust SpeedMPH,PrecipitationIn,Events,Conditions,WindDirDegrees,DateUTC
12:53 AM,25.0,15.1,66,30.42,10.0,WNW,4.6,-,N/A,,Clear,290,2012-11-24 06:53:00
1:53 AM,24.1,15.1,69,30.42,10.0,WNW,5.8,-,N/A,,Clear,300,2012-11-24 07:53:00
2:53 AM,23.0,15.1,72,30.42,10.0,WNW,4.6,-,N/A,,Clear,290,2012-11-24 08:53:00
3:53 AM,23.0,15.1,72,30.41,10.0,WNW,4.6,-,N/A,,Clear,290,2012-11-24 09:53:00
4:53 AM,23.0,15.1,72,30.40,10.0,West,3.5,-,N/A,,Clear,270,2012-11-24 10:53:00
5:53 AM,24.1,14.0,65,30.40,10.0,West,3.5,-,N/A,,Clear,270,2012-11-24 11:53:00
6:53 AM,23.0,15.1,72,30.40,10.0,Calm,Calm,-,N/A,,Clear,0,2012-11-24 12:53:00
7:53 AM,24.1,16.0,71,30.40,10.0,SW,3.5,-,N/A,,Clear,220,2012-11-24 13:53:00
8:53 AM,28.0,16.0,61,30.40,10.0,WSW,4.6,-,N/A,,Clear,250,2012-11-24 14:53:00
9:53 AM,30.9,17.1,57,30.38,10.0,SW,5.8,-,N/A,,Clear,230,2012-11-24 15:53:00
10:53 AM,33.1,17.1,52,30.35,10.0,SSW,4.6,-,N/A,,Clear,200,2012-11-24 16:53:00
11:53 AM,35.1,18.0,50,30.30,10.0,Variable,3.5,-,N/A,,Clear,0,2012-11-24 17:53:00
12:53 PM,39.0,19.0,45,30.25,10.0,South,6.9,-,N/A,,Clear,170,2012-11-24 18:53:00
1:53 PM,41.0,21.0,45,30.20,10.0,South,9.2,-,N/A,,Clear,180,2012-11-24 19:53:00
2:53 PM,43.0,21.0,42,30.16,10.0,South,12.7,-,N/A,,Clear,170,2012-11-24 20:53:00
3:53 PM,44.1,21.0,40,30.13,10.0,SSE,9.2,-,N/A,,Clear,150,2012-11-24 21:53:00
4:53 PM,41.0,21.9,47,30.09,10.0,South,9.2,-,N/A,,Clear,170,2012-11-24 22:53:00
5:53 PM,39.0,21.0,49,30.05,10.0,SSE,12.7,-,N/A,,Clear,160,2012-11-24 23:53:00
6:53 PM,39.0,21.0,49,30.04,10.0,South,11.5,-,N/A,,Clear,180,2012-11-25 00:53:00
7:53 PM,39.9,21.0,47,30.02,10.0,South,10.4,-,N/A,,Clear,190,2012-11-25 01:53:00
8:53 PM,41.0,21.0,45,30.00,10.0,South,11.5,-,N/A,,Clear,190,2012-11-25 02:53:00
9:53 PM,43.0,23.0,45,30.00,10.0,South,12.7,-,N/A,,Clear,190,2012-11-25 03:53:00
10:53 PM,44.1,23.0,43,29.97,10.0,SSW,15.0,-,N/A,,Clear,200,2012-11-25 04:53:00
11:53 PM,44.1,23.0,43,29.96,10.0,SSW,17.3,-,N/A,,Clear,210,2012-11-25 05:53:00